Station CHTM3 - 8447435 - Chatham, MA Image indicating link to RSS feed of recent meteorological observations for station CHTM3


Conditions at CHTM3 as of
(1:48 pm EDT)
1748 GMT on 05/26/2024:
     

Click on the graph icon in the table below to see a time series plot of the last five days of that observation.

5-day plot - Atmospheric Pressure Atmospheric Pressure (PRES):29.96 in
5-day plot - Air Temperature Air Temperature (ATMP): 65.7 °F
5-day plot - Water Temperature Water Temperature (WTMP): 60.6 °F
NOS Water Level Observation Network Water Level
Previous observations
TIME
(EDT)
5-day plot - Wind Direction
WDIR
 
5-day plot - Wind Speed
WSPD
kts
5-day plot - Wind Gust
GST
kts
5-day plot - Wave Height
WVHT
ft
5-day plot - Dominant Wave Period
DPD
sec
5-day plot - Average Wave Period
APD
sec
5-day plot - Mean Wave Direction
MWD
 
5-day plot - Atmospheric Pressure
PRES
in
5-day plot - Pressure Tendency
PTDY
in
5-day plot - Air Temperature
ATMP
°F
5-day plot - Water Temperature
WTMP
°F
5-day plot - Dew Point
DEWP
°F
5-day plot - Salinity
SAL
psu
5-day plot - Visibility
VIS
nmi
5-day plot - Tide (above MLLW)
TIDE
ft
2024-05-26 01:42 pm-------29.96- 65.1 60.8----
2024-05-26 01:36 pm-------29.96- 64.8 61.0----
2024-05-26 01:30 pm-------29.96-- 61.2----
2024-05-26 01:24 pm-------29.96-- 61.7----
2024-05-26 01:18 pm-------29.96- 63.7 61.9----
2024-05-26 01:12 pm-------29.96- 65.3 62.1----
2024-05-26 01:06 pm-------29.96- 66.2 62.1----
2024-05-26 01:00 pm-------29.96-0.01 65.1 62.1----
2024-05-26 12:54 pm-------29.96- 64.4 62.1----
2024-05-26 12:48 pm-------29.96- 64.0 61.9----
2024-05-26 12:42 pm-------29.96- 63.9 61.9----
2024-05-26 12:36 pm-------29.96- 63.3 61.9----
2024-05-26 12:30 pm-------29.96- 63.0 62.1----
2024-05-26 12:24 pm-------29.96- 63.0 62.4----
2024-05-26 12:18 pm-------29.96- 63.1 62.4----
2024-05-26 12:12 pm-------29.96- 64.0 62.6----
2024-05-26 12:06 pm-------29.96- 62.8 62.6----
2024-05-26 12:00 pm-------29.96+0.00 62.6 62.6----
2024-05-26 11:54 am-------29.96- 61.3 62.4----
2024-05-26 11:48 am-------29.96- 60.4 62.4----
2024-05-26 11:42 am-------29.97- 60.1 62.6----
2024-05-26 11:36 am-------29.97- 59.9 62.6----
2024-05-26 11:30 am-------29.97- 58.8 62.4----
2024-05-26 11:24 am-------29.97- 57.6 62.4----
2024-05-26 11:18 am-------29.97- 57.9 62.4----
2024-05-26 11:12 am-------29.97- 58.1 62.4----
2024-05-26 11:06 am-------29.97- 59.0 62.2----
2024-05-26 11:00 am-------29.97+0.03 61.9 62.2----
2024-05-26 10:54 am-------29.97- 62.4 62.2----
2024-05-26 10:48 am-------29.97- 62.2 62.1----
2024-05-26 10:42 am-------29.97- 63.0 62.1----
2024-05-26 10:36 am-------29.97- 62.4 62.1----
2024-05-26 10:30 am-------29.97- 62.6 62.1----
2024-05-26 10:24 am-------29.97- 62.1 61.9----
2024-05-26 10:18 am-------29.97- 61.5 61.9----
2024-05-26 10:12 am-------29.97- 61.7 61.9----
2024-05-26 10:06 am-------29.97- 62.1 61.9----
2024-05-26 10:00 am-------29.97+0.04 61.9 61.7----
2024-05-26 09:54 am-------29.96- 61.7 61.7----
2024-05-26 09:48 am-------29.96- 61.7 61.7----
2024-05-26 09:42 am-------29.96- 61.7 61.5----
2024-05-26 09:36 am-------29.96- 61.3 61.5----
2024-05-26 09:30 am-------29.96-- 61.5----
2024-05-26 09:24 am-------29.96-- 61.3----
2024-05-26 09:18 am-------29.96-- 61.3----
2024-05-26 09:12 am-------29.96-- 61.3----
2024-05-26 09:06 am-------29.96-- 61.3----
2024-05-26 09:00 am-------29.96+0.04- 61.2----
2024-05-26 08:54 am-------29.96-- 61.2----
2024-05-26 08:48 am-------29.96- 58.6 61.0----
2024-05-26 08:42 am-------29.95- 58.3 61.0----
2024-05-26 08:36 am-------29.95- 58.1 61.0----
2024-05-26 08:30 am-------29.95- 57.9 60.8----
2024-05-26 08:24 am-------29.95- 57.9 60.6----
2024-05-26 08:18 am-------29.95- 57.9 60.6----
2024-05-26 08:12 am-------29.95- 58.1 60.4----
2024-05-26 08:06 am-------29.94- 57.9 60.3----
2024-05-26 08:00 am-------29.95+0.04 58.1-----
2024-05-26 07:54 am-------29.94- 57.9-----
2024-05-26 07:48 am-------29.94- 57.9 59.9----
2024-05-26 07:42 am-------29.94- 58.3 59.7----
2024-05-26 07:36 am-------29.94- 58.3 59.5----
2024-05-26 07:30 am-------29.94- 58.5 59.4----
2024-05-26 07:24 am-------29.94- 58.8 59.2----
2024-05-26 07:18 am-------29.94-- 59.2----
2024-05-26 07:12 am-------29.93-- 59.0----
2024-05-26 07:06 am-------29.93-- 58.8----
2024-05-26 07:00 am-------29.93+0.04- 58.6----
2024-05-26 06:54 am-------29.93-- 58.5----
2024-05-26 06:48 am-------29.93-- 58.5----
2024-05-26 06:42 am-------29.92-- 58.3----
2024-05-26 06:36 am-------29.92-- 58.3----
2024-05-26 06:30 am-------29.92- 58.1 58.1----
2024-05-26 06:24 am-------29.93- 57.6 57.9----
2024-05-26 06:18 am-------29.93-- 57.7----
2024-05-26 06:12 am-------29.92-- 57.4----
2024-05-26 06:06 am-------29.92-- 57.2----
2024-05-26 06:00 am-------29.92+0.01 57.0 57.0----
2024-05-26 05:54 am-------29.92- 57.0 56.7----
2024-05-26 05:48 am-------29.91- 56.7 56.5----
2024-05-26 05:42 am-------29.91- 56.5 56.3----
2024-05-26 05:36 am-------29.91- 56.3 56.1----
2024-05-26 05:30 am-------29.91- 56.3 55.6----
2024-05-26 05:24 am-------29.91- 55.9 55.4----
2024-05-26 05:18 am-------29.91- 55.8 55.0----
2024-05-26 05:12 am-------29.91- 55.6 55.0----
2024-05-26 05:06 am-------29.91- 55.6 54.9----
2024-05-26 05:00 am-------29.90+0.00 55.6 54.7----
2024-05-26 04:54 am-------29.90- 55.6 54.7----
2024-05-26 04:48 am-------29.90-- 54.5----
2024-05-26 04:42 am-------29.90-- 54.5----
2024-05-26 04:36 am-------29.90-- 54.5----
2024-05-26 04:30 am-------29.90- 55.8 54.3----
2024-05-26 04:24 am-------29.90- 55.9 54.3----
2024-05-26 04:18 am-------29.90- 55.9 54.3----
2024-05-26 04:12 am-------29.90- 56.1 54.3----
2024-05-26 04:06 am-------29.90- 56.3 54.3----
2024-05-26 04:00 am-------29.90-0.01 56.1 54.3----
2024-05-26 03:54 am-------29.90- 55.9 54.3----
2024-05-26 03:48 am-------29.90- 55.9 54.3----
2024-05-26 03:42 am-------29.90- 55.8 54.3----
2024-05-26 03:36 am-------29.90- 56.1 54.5----
2024-05-26 03:30 am-------29.90- 56.3 54.5----
2024-05-26 03:24 am-------29.90- 56.7 54.5----
2024-05-26 03:18 am-------29.90- 56.7 54.5----
2024-05-26 03:12 am-------29.90- 56.8 54.7----
2024-05-26 03:06 am-------29.90- 57.0 54.7----
2024-05-26 03:00 am-------29.91+0.00 57.0 54.7----
2024-05-26 02:54 am-------29.90- 57.2 54.9----
2024-05-26 02:48 am-------29.90- 57.4 55.0----
2024-05-26 02:42 am-------29.90- 57.2 55.0----
2024-05-26 02:36 am-------29.90- 57.2 55.2----
2024-05-26 02:30 am-------29.91- 57.4 55.2----
2024-05-26 02:24 am-------29.91- 57.4 55.4----
2024-05-26 02:18 am-------29.91- 57.6 55.6----
2024-05-26 02:12 am-------29.91- 57.7 55.6----
2024-05-26 02:06 am-------29.91- 57.7 55.8----
2024-05-26 02:00 am-------29.90+0.00 57.9 55.9----
2024-05-26 01:54 am-------29.91- 57.7 56.3----
2024-05-26 01:48 am-------29.91- 57.7 56.5----
2024-05-26 01:42 am-------29.91- 57.7 57.0----
2024-05-26 01:36 am-------29.91- 58.1 57.4----
2024-05-26 01:30 am-------29.90- 57.9 58.3----
2024-05-26 01:24 am-------29.91- 57.7 59.0----
2024-05-26 01:18 am-------29.91- 57.7 59.4----
2024-05-26 01:12 am-------29.91- 57.6 59.5----
2024-05-26 01:06 am-------29.91- 57.6 59.7----
2024-05-26 01:00 am-------29.91+0.00 57.6 59.9----
2024-05-26 12:54 am-------29.91- 57.7 59.9----
2024-05-26 12:48 am-------29.91- 57.7 60.4----
2024-05-26 12:42 am-------29.91- 58.1 60.6----
2024-05-26 12:36 am-------29.91- 57.9 60.6----
2024-05-26 12:30 am-------29.91- 58.1 60.4----
2024-05-26 12:24 am-------29.91- 58.3 60.6----
2024-05-26 12:18 am-------29.91- 58.3 60.6----
2024-05-26 12:12 am-------29.91- 58.3 60.6----
2024-05-26 12:06 am-------29.91- 58.3 60.8----
2024-05-26 12:00 am-------29.91+0.00 58.3 60.8----
2024-05-25 11:54 pm-------29.91- 58.3 60.8----
2024-05-25 11:48 pm-------29.91- 58.3 60.8----
2024-05-25 11:42 pm-------29.90- 58.3 61.0----
2024-05-25 11:36 pm-------29.90- 58.3 61.2----
2024-05-25 11:30 pm-------29.90- 58.1 61.3----
2024-05-25 11:24 pm-------29.90- 58.5 61.3----
2024-05-25 11:18 pm-------29.90- 58.3 61.3----
2024-05-25 11:12 pm-------29.90- 58.5 61.2----
2024-05-25 11:06 pm-------29.90- 58.1 61.3----
2024-05-25 11:00 pm-------29.90+0.00 57.4 61.3----
2024-05-25 10:54 pm-------29.90- 57.4 61.5----
2024-05-25 10:48 pm-------29.90- 57.4 61.5----
2024-05-25 10:42 pm-------29.90- 57.9 61.5----
2024-05-25 10:36 pm-------29.90- 57.9 61.7----
2024-05-25 10:30 pm-------29.90- 57.9 61.5----
2024-05-25 10:24 pm-------29.90- 57.9 61.3----
2024-05-25 10:18 pm-------29.91- 57.9 61.3----
2024-05-25 10:12 pm-------29.91- 57.7 61.3----
2024-05-25 10:06 pm-------29.91- 57.6 61.3----
2024-05-25 10:00 pm-------29.91+0.02 57.9 61.3----
2024-05-25 09:54 pm-------29.91- 57.9 61.3----
2024-05-25 09:48 pm-------29.91- 57.9 61.3----
2024-05-25 09:42 pm-------29.91- 57.7 61.3----
2024-05-25 09:36 pm-------29.91- 57.6 61.3----
2024-05-25 09:30 pm-------29.91- 57.2 61.3----
2024-05-25 09:24 pm-------29.91- 56.8 61.3----
2024-05-25 09:18 pm-------29.91- 56.5 61.3----
2024-05-25 09:12 pm-------29.91- 56.3 61.3----
2024-05-25 09:06 pm-------29.91- 56.5 61.3----
2024-05-25 09:00 pm-------29.91- 57.6 61.3----
2024-05-25 08:54 pm-------29.91- 57.4 61.3----
2024-05-25 08:48 pm-------29.90- 59.0 61.3----
2024-05-25 08:42 pm-------29.90- 59.0 61.5----
2024-05-25 08:36 pm-------29.90- 59.2 61.5----
2024-05-25 08:30 pm-------29.90- 59.0 61.5----
2024-05-25 08:24 pm-------29.90- 59.0 61.7----
2024-05-25 08:18 pm-------29.90- 59.2 61.7----
2024-05-25 08:12 pm-------29.90- 59.4 61.9----
2024-05-25 08:06 pm-------29.90- 59.5 61.9----
2024-05-25 08:00 pm-------29.90+0.00 59.5 61.9----
2024-05-25 07:54 pm-------29.90- 59.7 62.1----
2024-05-25 07:48 pm-------29.90- 59.5 62.1----
2024-05-25 07:42 pm-------29.90- 59.5 62.1----
2024-05-25 07:36 pm-------29.89- 59.5 62.1----
2024-05-25 07:30 pm-------29.89-- 61.9----
2024-05-25 07:24 pm-------29.89-- 61.9----
2024-05-25 07:00 pm-------29.89+0.00 59.4 61.9----
2024-05-25 06:54 pm-------29.89- 59.0 61.9----
2024-05-25 06:48 pm-------29.89-- 61.9----
2024-05-25 06:42 pm-------29.89-- 61.9----
2024-05-25 06:36 pm-------29.89-- 61.9----
2024-05-25 06:30 pm-------29.88- 60.3 61.9----
2024-05-25 06:24 pm-------29.88- 61.0 61.9----
2024-05-25 06:18 pm-------29.88- 60.8 61.7----
2024-05-25 06:12 pm-------29.88- 60.6 61.7----
2024-05-25 06:06 pm-------29.89- 61.9 61.5----
2024-05-25 06:00 pm--------- 62.2 61.3----
2024-05-25 05:54 pm--------- 62.1 61.3----
2024-05-25 05:48 pm-------29.88-- 61.3----
2024-05-25 05:42 pm-------29.89-- 61.2----
2024-05-25 05:36 pm-------29.88-- 60.8----
2024-05-25 05:30 pm-------29.88- 63.5-----
2024-05-25 05:24 pm-------29.88- 62.6-----
2024-05-25 05:18 pm-------29.89- 62.6 58.1----
2024-05-25 05:12 pm-------29.89- 62.8 57.2----
2024-05-25 05:06 pm-------29.89- 62.6 56.7----
2024-05-25 05:00 pm-------29.89+0.00 63.0 56.5----
2024-05-25 04:54 pm-------29.89- 63.0 56.3----
2024-05-25 04:48 pm-------29.89-- 56.1----
2024-05-25 04:42 pm-------29.89-- 56.1----
2024-05-25 04:36 pm-------29.90-- 55.9----
2024-05-25 04:30 pm-------29.89- 63.5 55.6----
2024-05-25 04:24 pm-------29.89- 63.7 55.6----
2024-05-25 04:18 pm-------29.89- 63.5 55.6----
2024-05-25 04:12 pm-------29.89- 63.3 55.6----
2024-05-25 04:06 pm-------29.89- 63.3 55.4----
2024-05-25 04:00 pm-------29.89-0.01 63.3 55.4----
2024-05-25 03:54 pm-------29.89- 62.6 55.4----
2024-05-25 03:48 pm-------29.89- 63.3 55.6----
2024-05-25 03:42 pm-------29.89- 63.1 55.6----
2024-05-25 03:36 pm-------29.89- 62.4 55.6----
2024-05-25 03:30 pm-------29.89-- 55.6----
2024-05-25 03:24 pm-------29.89-- 55.9----
2024-05-25 03:18 pm-------29.89- 63.0 55.9----
2024-05-25 03:12 pm-------29.89- 63.5 55.9----
2024-05-25 03:06 pm-------29.89- 63.9 56.1----
2024-05-25 03:00 pm-------29.89-0.02 62.4 56.3----
2024-05-25 02:54 pm-------29.89- 63.3 56.7----
2024-05-25 02:48 pm-------29.89- 63.3 56.8----
2024-05-25 02:42 pm-------29.89- 63.7 57.6----
2024-05-25 02:36 pm-------29.89- 63.1 57.7----
2024-05-25 02:30 pm-------29.89- 63.0 58.5----
2024-05-25 02:24 pm-------29.89- 62.4 59.0----
2024-05-25 02:18 pm-------29.90- 61.7 59.5----
2024-05-25 02:12 pm-------29.90- 62.1 59.9----
2024-05-25 02:06 pm-------29.90- 62.1 60.1----
2024-05-25 02:00 pm-------29.90-0.01 61.5 60.1----
2024-05-25 01:54 pm-------29.90- 62.8 60.1----